sat.trackr.live / text

‹ back to catalog

STARLINK-31806

NORAD 59640 · 2024-082K

PAYLOAD ACTIVE UNKNOWN

§ Identity

Operator
Country
US
Launch date
2024-05-03
Launch site
AFETR
Launch vehicle
Mass (kg)
RCS (m²)

Purposes: comms

External: N2YO · Heavens-Above · Gunter

§ Orbital elements

Epoch: 2026-05-25T03:24:06.880320Z

Period
94.27 min
Inclination
43.0007°
Eccentricity
0.0000758
Mean motion
15.27575368 rev/d
Perigee alt
482.5 km
Apogee alt
483.6 km
Semi-major
6,861.2 km
B*
3.3651e-5
RAAN
68.1040°
Arg perigee
247.9251°
Mean anomaly
112.1520°
Rev number
11,650

§ Raw data

STARLINK-318061 59640U 24082K   26145.14174630  .00000664  00000+0  33651-4 0  99912 59640  43.0007  68.1040 0000758 247.9251 112.1520 15.27575368116503

JSON: /api/v1/satellites/59640 · /tle

For live sub-satellite position, see the globe view (requires WebGL).

§ Visibility from observer

Set your observer location to see the next 7 days of passes ≥ 10°. The values pass through the URL so the page stays shareable.

No JS? Fill the form by hand. The geolocation button needs JavaScript.